Satellite: HUBBLE
Catalog number: 20580
Epoch time:      09064.42347310
Element set:     340
Inclination:      028.4696 deg
RA of node:       059.2685 deg
Eccentricity:    0.0003599
Arg of perigee:   275.8625 deg
Mean anomaly:     084.1555 deg
Mean motion:   15.00460534 rev/day
Decay rate:       3.25e-06 rev/day^2
Epoch rev:           83425
Checksum:              293

Satellite: PO-34
Catalog number: 25520
Epoch time:      09064.53035072
Element set:     197
Inclination:      028.4602 deg
RA of node:       228.9742 deg
Eccentricity:    0.0005450
Arg of perigee:   248.7612 deg
Mean anomaly:     111.2397 deg
Mean motion:   15.17304345 rev/day
Decay rate:       3.60e-06 rev/day^2
Epoch rev:           57289
Checksum:              289

Satellite: ISS
Catalog number: 25544
Epoch time:      09064.66571322
Element set:     398
Inclination:      051.6402 deg
RA of node:       117.2204 deg
Eccentricity:    0.0009690
Arg of perigee:   090.7880 deg
Mean anomaly:     050.2403 deg
Mean motion:   15.71285410 rev/day
Decay rate:      8.711e-05 rev/day^2
Epoch rev:           58966
Checksum:              289

Satellite: CO-58
Catalog number: 28895
Epoch time:      09063.73820533
Element set:    0249
Inclination:      098.0704 deg
RA of node:       317.2059 deg
Eccentricity:    0.0017236
Arg of perigee:   317.5148 deg
Mean anomaly:     042.4706 deg
Mean motion:   14.59746193 rev/day
Decay rate:        3.0e-07 rev/day^2
Epoch rev:           17849
Checksum:              327

Satellite: FALCON
Catalog number: 30776
Epoch time:      09063.95566483
Element set:    0531
Inclination:      035.4341 deg
RA of node:       011.7705 deg
Eccentricity:    0.0000675
Arg of perigee:   058.2612 deg
Mean anomaly:     301.8198 deg
Mean motion:   15.03181151 rev/day
Decay rate:       3.27e-06 rev/day^2
Epoch rev:           10940
Checksum:              270

Satellite: MAST
Catalog number: 31126
Epoch time:      09064.15382343
Element set:     541
Inclination:      098.0018 deg
RA of node:       123.6602 deg
Eccentricity:    0.0093659
Arg of perigee:   242.5498 deg
Mean anomaly:     116.6152 deg
Mean motion:   14.53480332 rev/day
Decay rate:       -5.1e-07 rev/day^2
Epoch rev:            9992
Checksum:              284

Satellite: CAPE1
Catalog number: 31130
Epoch time:      09064.84756658
Element set:     543
Inclination:      098.0058 deg
RA of node:       122.7393 deg
Eccentricity:    0.0101594
Arg of perigee:   244.9188 deg
Mean anomaly:     114.1401 deg
Mean motion:   14.52036912 rev/day
Decay rate:       -5.7e-07 rev/day^2
Epoch rev:            9969
Checksum:              303

Satellite: COMPASS
Catalog number: 32787
Epoch time:      09063.21781009
Element set:    0296
Inclination:      097.9557 deg
RA of node:       127.8767 deg
Eccentricity:    0.0016498
Arg of perigee:   017.1309 deg
Mean anomaly:     343.0446 deg
Mean motion:   14.81556697 rev/day
Decay rate:       3.78e-06 rev/day^2
Epoch rev:           04590
Checksum:              340

Satellite: AAUSAT2
Catalog number: 32788
Epoch time:      09064.81507160
Element set:     297
Inclination:      097.9547 deg
RA of node:       129.5032 deg
Eccentricity:    0.0015505
Arg of perigee:   014.6113 deg
Mean anomaly:     345.5552 deg
Mean motion:   14.81676232 rev/day
Decay rate:       1.97e-06 rev/day^2
Epoch rev:            4614
Checksum:              300

Satellite: DO-64
Catalog number: 32789
Epoch time:      09063.68648939
Element set:    0316
Inclination:      097.9598 deg
RA of node:       128.4863 deg
Eccentricity:    0.0015936
Arg of perigee:   015.7327 deg
Mean anomaly:     344.4368 deg
Mean motion:   14.81629095 rev/day
Decay rate:       5.61e-06 rev/day^2
Epoch rev:           04597
Checksum:              372

Satellite: CO-66
Catalog number: 32791
Epoch time:      09063.18133682
Element set:    0292
Inclination:      097.9580 deg
RA of node:       127.8698 deg
Eccentricity:    0.0016587
Arg of perigee:   015.6348 deg
Mean anomaly:     344.5366 deg
Mean motion:   14.81394005 rev/day
Decay rate:        2.3e-07 rev/day^2
Epoch rev:           04586
Checksum:              335

Satellite: RS-30
Catalog number: 32953
Epoch time:      09064.19711254
Element set:     247
Inclination:      082.5060 deg
RA of node:       321.2898 deg
Eccentricity:    0.0020172
Arg of perigee:   046.3507 deg
Mean anomaly:     313.9241 deg
Mean motion:   12.42999804 rev/day
Decay rate:        1.0e-07 rev/day^2
Epoch rev:            3547
Checksum:              280

/EX




_______________________________________________
Via the Keps mailing list courtesy of AMSAT-NA
http://amsat.org/mailman/listinfo/keps

--- ViaMAIL!/WC v1.60d
 * Origin: Chowdanet (401-724-4410) telnet://chowdanet.com  (1:323/120)